• In Hungary
  • List of Countries
  • For 7 days
  • Water Temperature
  • Satellite Maps
  • Weather Map
  • News
  • Weather Widgets
  • user-avatar
    Login

    Hourly Weather Catarroja

    Today, 18 January, Thursday

    Time Temperature Precipitation Wind Pressure Humidity
    00:00 +10°C° 0 mm 2 mps 768 mmHg 66%
    01:00 +10°C° 0 mm 2 mps 768 mmHg 67%
    02:00 +10°C° 0 mm 2 mps 768 mmHg 68%
    03:00 +9°C° 0 mm 2 mps 768 mmHg 69%
    04:00 +9°C° 0 mm 2 mps 768 mmHg 72%
    05:00 +10°C° 0 mm 1 mps 768 mmHg 75%
    06:00 +9°C° 0 mm 1 mps 768 mmHg 75%
    07:00 +10°C° 0 mm 1 mps 768 mmHg 73%
    08:00 +12°C° 0 mm 1 mps 768 mmHg 71%
    09:00 +13°C° 0 mm 1 mps 768 mmHg 69%
    10:00 +14°C° 0 mm 1 mps 768 mmHg 64%
    11:00 +16°C° 0 mm 1 mps 767 mmHg 58%
    12:00 +19°C° 0 mm 1 mps 767 mmHg 53%
    13:00 +19°C° 0 mm 1 mps 766 mmHg 50%
    14:00 +20°C° 0 mm 1 mps 765 mmHg 48%
    15:00 +20°C° 0 mm 1 mps 765 mmHg 46%
    16:00 +17°C° 0 mm 2 mps 765 mmHg 56%
    17:00 +15°C° 0 mm 2 mps 765 mmHg 66%
    18:00 +13°C° 0 mm 2 mps 765 mmHg 76%
    19:00 +13°C° 0 mm 2 mps 765 mmHg 76%
    20:00 +13°C° 0 mm 1 mps 765 mmHg 77%
    21:00 +12°C° 0 mm 1 mps 765 mmHg 77%
    22:00 +12°C° 0 mm 1 mps 765 mmHg 75%
    23:00 +12°C° 0 mm 1 mps 765 mmHg 72%

    Tomorrow, 19 January, Friday

    Time Temperature Precipitation Wind Pressure Humidity
    00:00 +12°C° 0 mm 1 mps 765 mmHg 70%
    01:00 +12°C° 0 mm 1 mps 764 mmHg 67%
    02:00 +12°C° 0 mm 1 mps 764 mmHg 64%
    03:00 +12°C° 0 mm 1 mps 764 mmHg 62%
    04:00 +12°C° 0 mm 1 mps 764 mmHg 62%
    05:00 +12°C° 0 mm 2 mps 764 mmHg 62%
    06:00 +12°C° 0 mm 2 mps 764 mmHg 63%
    07:00 +12°C° 0 mm 2 mps 764 mmHg 63%
    08:00 +13°C° 0 mm 2 mps 764 mmHg 63%
    09:00 +14°C° 0 mm 2 mps 764 mmHg 63%
    10:00 +16°C° 0 mm 3 mps 764 mmHg 56%
    11:00 +17°C° 0 mm 3 mps 764 mmHg 50%
    12:00 +19°C° 0 mm 3 mps 764 mmHg 43%
    13:00 +19°C° 0 mm 3 mps 764 mmHg 42%
    14:00 +20°C° 0 mm 3 mps 763 mmHg 40%
    15:00 +20°C° 0 mm 4 mps 763 mmHg 39%
    16:00 +18°C° 0 mm 3 mps 764 mmHg 45%
    17:00 +16°C° 0 mm 3 mps 764 mmHg 51%
    18:00 +15°C° 0 mm 2 mps 765 mmHg 57%
    19:00 +13°C° 0 mm 3 mps 765 mmHg 60%
    20:00 +12°C° 0 mm 3 mps 766 mmHg 63%
    21:00 +11°C° 0 mm 3 mps 767 mmHg 66%
    22:00 +11°C° 0 mm 3 mps 767 mmHg 68%
    23:00 +11°C° 0 mm 3 mps 767 mmHg 71%

    Day after tomorrow, 20 January, Saturday

    Time Temperature Precipitation Wind Pressure Humidity
    00:00 +10°C° 0 mm 3 mps 767 mmHg 73%
    01:00 +10°C° 0 mm 3 mps 767 mmHg 74%
    02:00 +9°C° 0 mm 3 mps 767 mmHg 75%
    03:00 +8°C° 0 mm 4 mps 767 mmHg 77%
    04:00 +8°C° 0 mm 4 mps 768 mmHg 75%
    05:00 +8°C° 0 mm 4 mps 768 mmHg 74%
    06:00 +8°C° 0 mm 4 mps 768 mmHg 73%
    07:00 +10°C° 0 mm 4 mps 768 mmHg 67%
    08:00 +11°C° 0 mm 4 mps 768 mmHg 61%
    09:00 +12°C° 0 mm 4 mps 768 mmHg 55%
    10:00 +14°C° 0 mm 5 mps 768 mmHg 49%
    11:00 +16°C° 0 mm 5 mps 767 mmHg 42%
    12:00 +20°C° 0 mm 6 mps 766 mmHg 36%
    13:00 +20°C° 0 mm 6 mps 766 mmHg 36%
    14:00 +20°C° 0 mm 6 mps 766 mmHg 36%
    15:00 +21°C° 0 mm 6 mps 765 mmHg 36%
    16:00 +19°C° 0 mm 6 mps 765 mmHg 39%
    17:00 +17°C° 0 mm 6 mps 766 mmHg 43%
    18:00 +16°C° 0 mm 7 mps 766 mmHg 47%
    19:00 +15°C° 0 mm 7 mps 766 mmHg 49%
    20:00 +15°C° 0 mm 7 mps 767 mmHg 51%
    21:00 +15°C° 0 mm 8 mps 767 mmHg 53%
    22:00 +15°C° 0 mm 8 mps 767 mmHg 56%
    23:00 +15°C° 0 mm 9 mps 767 mmHg 59%

    21 January, Sunday

    Time Temperature Precipitation Wind Pressure Humidity
    00:00 +15°C° 0 mm 9 mps 768 mmHg 62%
    01:00 +13°C° 0 mm 9 mps 767 mmHg 63%
    02:00 +13°C° 0 mm 9 mps 767 mmHg 65%
    03:00 +13°C° 0 mm 9 mps 767 mmHg 66%
    04:00 +13°C° 0 mm 8 mps 767 mmHg 68%
    05:00 +13°C° 0 mm 8 mps 768 mmHg 70%
    06:00 +14°C° 0 mm 7 mps 768 mmHg 72%
    07:00 +14°C° 0 mm 7 mps 768 mmHg 69%
    08:00 +15°C° 0 mm 7 mps 768 mmHg 67%
    09:00 +16°C° 0 mm 6 mps 769 mmHg 65%
    10:00 +19°C° 0 mm 6 mps 769 mmHg 58%
    11:00 +21°C° 0 mm 6 mps 769 mmHg 51%
    12:00 +23°C° 0 mm 6 mps 769 mmHg 44%
    13:00 +23°C° 0 mm 5 mps 768 mmHg 42%
    14:00 +23°C° 0 mm 4 mps 768 mmHg 41%
    15:00 +25°C° 0 mm 3 mps 768 mmHg 39%
    16:00 +22°C° 0 mm 3 mps 768 mmHg 46%
    17:00 +20°C° 0 mm 3 mps 768 mmHg 53%
    18:00 +18°C° 0 mm 3 mps 768 mmHg 60%
    19:00 +17°C° 0 mm 3 mps 769 mmHg 64%
    20:00 +17°C° 0 mm 3 mps 769 mmHg 68%
    21:00 +16°C° 0 mm 2 mps 770 mmHg 72%
    22:00 +14°C° 0 mm 3 mps 770 mmHg 74%
    23:00 +14°C° 0 mm 3 mps 770 mmHg 76%

    22 January, Monday

    Time Temperature Precipitation Wind Pressure Humidity
    00:00 +13°C° 0 mm 3 mps 770 mmHg 77%
    01:00 +13°C° 0 mm 3 mps 770 mmHg 78%
    02:00 +13°C° 0 mm 3 mps 770 mmHg 79%
    03:00 +12°C° 0 mm 3 mps 770 mmHg 79%
    04:00 +12°C° 0 mm 3 mps 770 mmHg 79%
    05:00 +12°C° 0 mm 3 mps 770 mmHg 79%
    06:00 +12°C° 0 mm 3 mps 770 mmHg 78%
    07:00 +13°C° 0 mm 3 mps 770 mmHg 73%
    08:00 +13°C° 0 mm 3 mps 770 mmHg 68%
    09:00 +14°C° 0 mm 3 mps 770 mmHg 64%
    10:00 +17°C° 0 mm 2 mps 770 mmHg 56%
    11:00 +19°C° 0 mm 2 mps 770 mmHg 48%
    12:00 +21°C° 0 mm 2 mps 770 mmHg 40%
    13:00 +23°C° 0 mm 2 mps 769 mmHg 39%
    14:00 +23°C° 0 mm 2 mps 769 mmHg 37%
    15:00 +24°C° 0 mm 3 mps 768 mmHg 36%
    16:00 +21°C° 0 mm 3 mps 769 mmHg 43%
    17:00 +19°C° 0 mm 3 mps 769 mmHg 50%
    18:00 +17°C° 0 mm 3 mps 769 mmHg 57%
    19:00 +16°C° 0 mm 2 mps 769 mmHg 59%
    20:00 +16°C° 0 mm 2 mps 770 mmHg 61%
    21:00 +15°C° 0 mm 2 mps 770 mmHg 62%
    22:00 +15°C° 0 mm 1 mps 770 mmHg 62%
    23:00 +14°C° 0 mm 1 mps 770 mmHg 62%

    23 January, Tuesday

    Time Temperature Precipitation Wind Pressure Humidity
    00:00 +14°C° 0 mm 1 mps 770 mmHg 62%
    01:00 +14°C° 0 mm 1 mps 770 mmHg 62%
    02:00 +14°C° 0 mm 1 mps 770 mmHg 62%
    03:00 +13°C° 0 mm 1 mps 770 mmHg 62%
    04:00 +13°C° 0 mm 1 mps 770 mmHg 62%
    05:00 +13°C° 0 mm 1 mps 770 mmHg 62%
    06:00 +13°C° 0 mm 1 mps 770 mmHg 62%
    07:00 +14°C° 0 mm 1 mps 771 mmHg 57%
    08:00 +15°C° 0 mm 1 mps 771 mmHg 52%
    09:00 +18°C° 0 mm 1 mps 771 mmHg 47%
    10:00 +19°C° 0 mm 1 mps 771 mmHg 43%
    11:00 +21°C° 0 mm 1 mps 771 mmHg 39%
    12:00 +23°C° 0 mm 1 mps 771 mmHg 34%
    13:00 +23°C° 0 mm 1 mps 770 mmHg 35%
    14:00 +23°C° 0 mm 2 mps 770 mmHg 36%
    15:00 +23°C° 0 mm 2 mps 770 mmHg 36%
    16:00 +20°C° 0 mm 2 mps 770 mmHg 45%
    17:00 +18°C° 0 mm 2 mps 770 mmHg 54%
    18:00 +16°C° 0 mm 2 mps 770 mmHg 63%
    19:00 +15°C° 0 mm 2 mps 770 mmHg 66%
    20:00 +14°C° 0 mm 1 mps 771 mmHg 68%
    21:00 +14°C° 0 mm 1 mps 771 mmHg 71%
    22:00 +14°C° 0 mm 1 mps 771 mmHg 71%
    23:00 +13°C° 0 mm 1 mps 771 mmHg 71%
    Show more